Powrót do katalogu

STARLINK-3587

AktywnyŁącznośćVLEO
NORAD 51892·PAYLOAD·🇺🇸 United States

Wystrzelony Mar 3, 2022 z Cape Canaveral Space Force Station

Loading…

Następne Przeloty (najbliższe 24 godziny)

TLE

ŚwieżeSource: CelesTrak SupGP

Epoka: Sep 14, 2026, 20:31 UTC

1 51892C 22022AS  26257.85534722  .00029929  00000+0  88441-3 0  2576
2 51892  53.1572 214.4525 0001262  97.2838 256.4983 15.34370665    19

Śledź STARLINK-3587 w czasie rzeczywistym z AllMySat

Download on the App Store